When you browse on this site, cookies collect data to enhance your experience and personalize the content and advertising you see.
Visit our Privacy Policy to learn more. By continuing to use the site, you agree to this use of cookies and data.
  • In Hungary
  • List of Countries
  • For 7 days
  • Water Temperature
  • Weather Map
  • News
  • Weather Widgets
  • user-avatar
    Login

    Hourly Weather Lisburn

    Today, 31 May, Sunday

    Time Temperature Precipitation Wind Pressure Humidity
    00:00 +11°C° 0 mm 4 mps 763 mmHg 85%
    01:00 +11°C° 0 mm 4 mps 763 mmHg 86%
    02:00 +12°C° 0 mm 4 mps 763 mmHg 88%
    03:00 +12°C° 0 mm 4 mps 763 mmHg 90%
    04:00 +12°C° 0 mm 4 mps 763 mmHg 89%
    05:00 +13°C° 0 mm 4 mps 763 mmHg 88%
    06:00 +13°C° 0 mm 4 mps 763 mmHg 89%
    07:00 +14°C° 0 mm 4 mps 763 mmHg 84%
    08:00 +15°C° 0 mm 5 mps 763 mmHg 79%
    09:00 +15°C° 0 mm 5 mps 763 mmHg 74%
    10:00 +16°C° 0 mm 5 mps 764 mmHg 70%
    11:00 +16°C° 0 mm 5 mps 764 mmHg 66%
    12:00 +17°C° 0 mm 5 mps 764 mmHg 62%
    13:00 +17°C° 0 mm 5 mps 764 mmHg 61%
    14:00 +18°C° 0 mm 4 mps 764 mmHg 60%
    15:00 +18°C° 0 mm 4 mps 764 mmHg 59%
    16:00 +18°C° 0 mm 4 mps 764 mmHg 63%
    17:00 +18°C° 0 mm 3 mps 764 mmHg 66%
    18:00 +17°C° 0 mm 3 mps 764 mmHg 69%
    19:00 +16°C° 0 mm 2 mps 764 mmHg 71%
    20:00 +14°C° 0 mm 2 mps 764 mmHg 72%
    21:00 +13°C° 0 mm 2 mps 764 mmHg 74%
    22:00 +12°C° 0 mm 2 mps 765 mmHg 76%
    23:00 +12°C° 0 mm 2 mps 765 mmHg 78%

    Tomorrow, 1 June, Monday

    Time Temperature Precipitation Wind Pressure Humidity
    00:00 +12°C° 0 mm 2 mps 765 mmHg 79%
    01:00 +12°C° 0 mm 2 mps 765 mmHg 84%
    02:00 +12°C° 0 mm 2 mps 765 mmHg 88%
    03:00 +12°C° 0 mm 2 mps 765 mmHg 92%
    04:00 +13°C° 0 mm 2 mps 765 mmHg 91%
    05:00 +13°C° 0 mm 2 mps 766 mmHg 90%
    06:00 +14°C° 0 mm 2 mps 766 mmHg 89%
    07:00 +14°C° 0 mm 3 mps 766 mmHg 83%
    08:00 +16°C° 0 mm 3 mps 766 mmHg 78%
    09:00 +18°C° 0 mm 3 mps 766 mmHg 73%
    10:00 +18°C° 0 mm 3 mps 766 mmHg 70%
    11:00 +19°C° 0 mm 3 mps 766 mmHg 67%
    12:00 +19°C° 0 mm 3 mps 766 mmHg 64%
    13:00 +19°C° 0 mm 3 mps 766 mmHg 63%
    14:00 +19°C° 0 mm 2 mps 766 mmHg 61%
    15:00 +19°C° 0 mm 2 mps 766 mmHg 59%
    16:00 +19°C° 0 mm 2 mps 766 mmHg 63%
    17:00 +20°C° 0 mm 1 mps 765 mmHg 66%
    18:00 +19°C° 0 mm 1 mps 765 mmHg 69%
    19:00 +18°C° 0 mm 1 mps 765 mmHg 73%
    20:00 +15°C° 0 mm 1 mps 766 mmHg 76%
    21:00 +12°C° 0 mm 0 mps 766 mmHg 79%
    22:00 +12°C° 0 mm 0 mps 766 mmHg 79%
    23:00 +11°C° 0 mm 0 mps 765 mmHg 79%

    Day after tomorrow, 2 June, Tuesday

    Time Temperature Precipitation Wind Pressure Humidity
    00:00 +11°C° 0 mm 0 mps 765 mmHg 80%
    01:00 +11°C° 0 mm 0 mps 765 mmHg 80%
    02:00 +11°C° 0 mm 0 mps 765 mmHg 81%
    03:00 +10°C° 0 mm 0 mps 765 mmHg 82%
    04:00 +11°C° 0 mm 0 mps 765 mmHg 81%
    05:00 +12°C° 0 mm 0 mps 764 mmHg 80%
    06:00 +13°C° 0 mm 0 mps 764 mmHg 79%
    07:00 +15°C° 0 mm 0 mps 764 mmHg 75%
    08:00 +18°C° 0 mm 1 mps 764 mmHg 71%
    09:00 +19°C° 0 mm 1 mps 764 mmHg 68%
    10:00 +20°C° 0 mm 1 mps 763 mmHg 66%
    11:00 +21°C° 0 mm 1 mps 763 mmHg 64%
    12:00 +22°C° 0 mm 1 mps 763 mmHg 63%
    13:00 +21°C° 0.4 mm 1 mps 762 mmHg 68%
    14:00 +20°C° 0.4 mm 2 mps 761 mmHg 74%
    15:00 +19°C° 0.4 mm 2 mps 761 mmHg 80%
    16:00 +18°C° 0.4 mm 2 mps 760 mmHg 83%
    17:00 +17°C° 0.4 mm 2 mps 760 mmHg 86%
    18:00 +17°C° 0.4 mm 2 mps 760 mmHg 89%
    19:00 +16°C° 0.2 mm 2 mps 759 mmHg 91%
    20:00 +14°C° 0.2 mm 3 mps 759 mmHg 92%
    21:00 +13°C° 0.2 mm 3 mps 759 mmHg 94%
    22:00 +12°C° 0 mm 3 mps 759 mmHg 95%
    23:00 +11°C° 0 mm 3 mps 758 mmHg 96%

    3 June, Wednesday

    Time Temperature Precipitation Wind Pressure Humidity
    00:00 +11°C° 0 mm 4 mps 758 mmHg 97%
    01:00 +10°C° 0 mm 4 mps 758 mmHg 96%
    02:00 +10°C° 0 mm 4 mps 757 mmHg 96%
    03:00 +10°C° 0 mm 4 mps 757 mmHg 95%
    04:00 +10°C° 0.1 mm 4 mps 757 mmHg 95%
    05:00 +11°C° 0.1 mm 4 mps 757 mmHg 95%
    06:00 +11°C° 0.1 mm 4 mps 757 mmHg 95%
    07:00 +10°C° 0.1 mm 5 mps 757 mmHg 92%
    08:00 +10°C° 0.1 mm 6 mps 758 mmHg 90%
    09:00 +11°C° 0.1 mm 6 mps 758 mmHg 87%
    10:00 +11°C° 0 mm 6 mps 758 mmHg 82%
    11:00 +13°C° 0 mm 6 mps 758 mmHg 77%
    12:00 +14°C° 0 mm 5 mps 758 mmHg 72%
    13:00 +14°C° 0 mm 5 mps 758 mmHg 71%
    14:00 +15°C° 0 mm 5 mps 758 mmHg 69%
    15:00 +15°C° 0 mm 5 mps 758 mmHg 68%
    16:00 +15°C° 0 mm 5 mps 758 mmHg 70%
    17:00 +14°C° 0 mm 4 mps 757 mmHg 71%
    18:00 +14°C° 0 mm 4 mps 757 mmHg 73%
    19:00 +12°C° 0 mm 4 mps 757 mmHg 78%
    20:00 +10°C° 0 mm 4 mps 757 mmHg 83%
    21:00 +9°C° 0 mm 3 mps 757 mmHg 88%
    22:00 +8°C° 0 mm 3 mps 757 mmHg 89%
    23:00 +8°C° 0 mm 3 mps 757 mmHg 90%

    4 June, Thursday

    Time Temperature Precipitation Wind Pressure Humidity
    00:00 +7°C° 0 mm 3 mps 757 mmHg 92%
    01:00 +7°C° 0 mm 3 mps 757 mmHg 93%
    02:00 +5°C° 0 mm 3 mps 756 mmHg 94%
    03:00 +5°C° 0 mm 3 mps 756 mmHg 95%
    04:00 +7°C° 0 mm 3 mps 756 mmHg 92%
    05:00 +7°C° 0 mm 4 mps 755 mmHg 89%
    06:00 +8°C° 0 mm 4 mps 755 mmHg 86%
    07:00 +10°C° 0 mm 4 mps 755 mmHg 83%
    08:00 +10°C° 0 mm 5 mps 755 mmHg 79%
    09:00 +12°C° 0 mm 5 mps 755 mmHg 75%
    10:00 +12°C° 0 mm 4 mps 755 mmHg 74%
    11:00 +13°C° 0 mm 4 mps 755 mmHg 73%
    12:00 +13°C° 0 mm 4 mps 754 mmHg 73%
    13:00 +13°C° 0 mm 4 mps 754 mmHg 73%
    14:00 +14°C° 0 mm 4 mps 754 mmHg 73%
    15:00 +14°C° 0 mm 3 mps 754 mmHg 74%
    16:00 +14°C° 0 mm 3 mps 754 mmHg 76%
    17:00 +13°C° 0 mm 3 mps 753 mmHg 77%
    18:00 +13°C° 0 mm 3 mps 753 mmHg 79%
    19:00 +13°C° 0 mm 3 mps 753 mmHg 81%
    20:00 +12°C° 0 mm 3 mps 752 mmHg 82%
    21:00 +11°C° 0 mm 4 mps 752 mmHg 84%
    22:00 +12°C° 0 mm 4 mps 752 mmHg 83%
    23:00 +12°C° 0 mm 5 mps 751 mmHg 83%

    5 June, Friday

    Time Temperature Precipitation Wind Pressure Humidity
    00:00 +12°C° 0 mm 5 mps 751 mmHg 83%
    01:00 +12°C° 0 mm 5 mps 750 mmHg 83%
    02:00 +12°C° 0 mm 5 mps 750 mmHg 84%
    03:00 +12°C° 0 mm 5 mps 750 mmHg 85%
    04:00 +11°C° 0 mm 6 mps 749 mmHg 84%
    05:00 +11°C° 0 mm 6 mps 749 mmHg 84%
    06:00 +11°C° 0 mm 6 mps 749 mmHg 84%
    07:00 +11°C° 0 mm 6 mps 749 mmHg 80%
    08:00 +11°C° 0 mm 6 mps 750 mmHg 77%
    09:00 +11°C° 0 mm 6 mps 750 mmHg 73%
    10:00 +11°C° 0 mm 6 mps 750 mmHg 70%
    11:00 +11°C° 0 mm 6 mps 750 mmHg 68%
    12:00 +11°C° 0 mm 6 mps 751 mmHg 65%
    13:00 +11°C° 0 mm 6 mps 751 mmHg 64%
    14:00 +11°C° 0 mm 6 mps 751 mmHg 64%
    15:00 +11°C° 0 mm 6 mps 751 mmHg 63%
    16:00 +11°C° 0 mm 6 mps 751 mmHg 64%
    17:00 +10°C° 0 mm 6 mps 752 mmHg 65%
    18:00 +10°C° 0 mm 6 mps 752 mmHg 67%
    19:00 +9°C° 0 mm 5 mps 752 mmHg 71%
    20:00 +7°C° 0 mm 5 mps 752 mmHg 76%
    21:00 +6°C° 0 mm 4 mps 753 mmHg 80%
    22:00 +6°C° 0 mm 4 mps 753 mmHg 84%
    23:00 +5°C° 0 mm 3 mps 753 mmHg 89%
    Show more